Time,TemperatureF,DewpointF,PressureIn,WindDirection,WindDirectionDegrees,WindSpeedMPH,WindSpeedGustMPH,Humidity,HourlyPrecipIn,Conditions,Clouds,dailyrainin,SoftwareType,DateUTC
2013-12-04 00:01:00,31.9,30.9,29.70,NNE,25,7.0,10.0,96,0.00,,,0.01,Wunderground v.1.15,2013-12-04 06:01:00,
2013-12-04 00:04:00,31.9,30.9,29.70,NNE,28,7.0,10.0,96,0.00,,,0.00,Wunderground v.1.15,2013-12-04 06:04:00,
2013-12-04 00:05:00,31.9,30.9,29.70,NNE,28,5.0,10.0,96,0.00,,,0.00,Wunderground v.1.15,2013-12-04 06:05:00,
2013-12-04 00:06:00,31.9,30.9,29.70,NNE,25,5.0,10.0,96,0.00,,,0.00,Wunderground v.1.15,2013-12-04 06:06:00,
2013-12-04 00:08:00,31.9,30.9,29.70,NNE,26,7.0,10.0,96,0.00,,,0.00,Wunderground v.1.15,2013-12-04 06:08:00,
2013-12-04 00:11:00,31.9,30.9,29.69,NNE,29,7.0,7.0,96,0.00,,,0.00,Wunderground v.1.15,2013-12-04 06:11:00,
2013-12-04 00:13:00,31.9,30.9,29.69,NE,44,4.0,7.0,96,0.00,,,0.00,Wunderground v.1.15,2013-12-04 06:13:00,
2013-12-04 00:15:00,31.9,30.9,29.69,NE,46,6.0,7.0,96,0.00,,,0.00,Wunderground v.1.15,2013-12-04 06:15:00,
2013-12-04 00:19:00,31.9,30.9,29.68,NE,43,5.0,7.0,96,0.00,,,0.00,Wunderground v.1.15,2013-12-04 06:19:00,
2013-12-04 00:20:00,31.9,30.9,29.68,NE,40,7.0,7.0,96,0.00,,,0.00,Wunderground v.1.15,2013-12-04 06:20:00,
2013-12-04 00:21:00,31.9,30.9,29.68,NE,40,5.0,7.0,96,0.00,,,0.00,Wunderground v.1.15,2013-12-04 06:21:00,
2013-12-04 00:26:00,31.9,30.9,29.68,NE,53,6.0,7.0,96,0.00,,,0.00,Wunderground v.1.15,2013-12-04 06:26:00,
2013-12-04 00:28:00,31.9,30.9,29.69,NE,35,5.0,7.0,96,0.00,,,0.00,Wunderground v.1.15,2013-12-04 06:28:00,
2013-12-04 00:29:00,31.9,30.9,29.69,NE,36,5.0,7.0,96,0.00,,,0.00,Wunderground v.1.15,2013-12-04 06:29:00,
2013-12-04 00:31:00,31.9,30.9,29.69,NNE,29,5.0,8.0,96,0.00,,,0.00,Wunderground v.1.15,2013-12-04 06:31:00,
2013-12-04 00:34:00,31.9,30.9,29.69,NNE,26,8.0,8.0,96,0.00,,,0.00,Wunderground v.1.15,2013-12-04 06:34:00,
2013-12-04 00:35:00,31.9,30.9,29.69,NNE,28,5.0,8.0,96,0.00,,,0.00,Wunderground v.1.15,2013-12-04 06:35:00,
2013-12-04 00:36:00,31.9,30.9,29.70,NNE,31,5.0,8.0,96,0.00,,,0.00,Wunderground v.1.15,2013-12-04 06:36:00,
2013-12-04 00:38:00,31.9,30.9,29.70,NNE,28,5.0,8.0,96,0.00,,,0.00,Wunderground v.1.15,2013-12-04 06:38:00,
2013-12-04 00:40:00,31.9,30.9,29.70,NNE,28,4.0,6.0,96,0.00,,,0.00,Wunderground v.1.15,2013-12-04 06:40:00,
2013-12-04 00:41:00,31.9,30.9,29.70,NNE,28,6.0,6.0,96,0.00,,,0.00,Wunderground v.1.15,2013-12-04 06:41:00,
2013-12-04 00:42:00,31.9,30.9,29.70,NNE,27,6.0,6.0,96,0.00,,,0.00,Wunderground v.1.15,2013-12-04 06:42:00,
2013-12-04 00:44:00,31.9,30.9,29.71,NNE,22,4.0,7.0,96,0.00,,,0.00,Wunderground v.1.15,2013-12-04 06:44:00,
2013-12-04 00:45:00,31.9,30.9,29.70,NNE,22,2.0,7.0,96,0.00,,,0.00,Wunderground v.1.15,2013-12-04 06:45:00,
2013-12-04 00:47:00,31.9,30.9,29.70,NNE,22,4.0,7.0,96,0.00,,,0.00,Wunderground v.1.15,2013-12-04 06:47:00,
2013-12-04 00:48:00,31.9,31.1,29.71,NNE,22,4.0,7.0,97,0.00,,,0.00,Wunderground v.1.15,2013-12-04 06:48:00,
2013-12-04 00:49:00,31.9,30.9,29.71,NNE,22,4.0,7.0,96,0.00,,,0.00,Wunderground v.1.15,2013-12-04 06:49:00,
2013-12-04 00:52:00,31.9,31.1,29.71,NNE,22,2.0,5.0,97,0.00,,,0.00,Wunderground v.1.15,2013-12-04 06:52:00,
2013-12-04 00:53:00,31.9,31.1,29.72,NNE,22,5.0,5.0,97,0.00,,,0.00,Wunderground v.1.15,2013-12-04 06:53:00,
2013-12-04 00:55:00,31.9,31.1,29.72,NNE,22,5.0,5.0,97,0.00,,,0.00,Wunderground v.1.15,2013-12-04 06:55:00,
2013-12-04 00:56:00,31.9,31.1,29.72,NNE,22,6.0,6.0,97,0.00,,,0.00,Wunderground v.1.15,2013-12-04 06:56:00,
2013-12-04 00:59:00,31.9,31.1,29.71,NNE,22,6.0,6.0,97,0.00,,,0.00,Wunderground v.1.15,2013-12-04 06:59:00,
2013-12-04 01:01:00,31.9,31.1,29.71,NNE,22,3.0,3.0,97,0.00,,,0.00,Wunderground v.1.15,2013-12-04 07:01:00,
2013-12-04 01:02:00,31.9,31.1,29.71,NNE,22,3.0,3.0,97,0.00,,,0.00,Wunderground v.1.15,2013-12-04 07:02:00,
2013-12-04 01:03:00,31.9,31.1,29.71,NNE,22,3.0,3.0,97,0.00,,,0.00,Wunderground v.1.15,2013-12-04 07:03:00,
2013-12-04 01:07:00,31.9,31.1,29.71,NNE,22,3.0,4.0,97,0.00,,,0.00,Wunderground v.1.15,2013-12-04 07:07:00,
2013-12-04 01:09:00,31.9,31.1,29.70,NNE,22,4.0,4.0,97,0.00,,,0.00,Wunderground v.1.15,2013-12-04 07:09:00,
2013-12-04 01:12:00,31.9,31.1,29.71,NNE,22,0.0,3.0,97,0.00,,,0.00,Wunderground v.1.15,2013-12-04 07:12:00,
2013-12-04 01:14:00,31.9,31.1,29.71,NNE,22,0.0,3.0,97,0.00,,,0.00,Wunderground v.1.15,2013-12-04 07:14:00,
2013-12-04 01:15:00,31.9,31.1,29.72,NNE,22,0.0,3.0,97,0.00,,,0.00,Wunderground v.1.15,2013-12-04 07:15:00,
2013-12-04 01:16:00,31.9,31.1,29.72,NNE,22,0.0,3.0,97,0.00,,,0.00,Wunderground v.1.15,2013-12-04 07:16:00,
2013-12-04 01:17:00,31.9,31.1,29.72,NNE,22,0.0,3.0,97,0.00,,,0.00,Wunderground v.1.15,2013-12-04 07:17:00,
2013-12-04 01:21:00,31.9,31.1,29.72,NNE,22,0.0,0.0,97,0.00,,,0.00,Wunderground v.1.15,2013-12-04 07:21:00,
2013-12-04 01:24:00,31.9,31.1,29.72,NNE,22,1.0,1.0,97,0.00,,,0.00,Wunderground v.1.15,2013-12-04 07:24:00,
2013-12-04 01:26:00,31.9,31.1,29.72,NNE,22,3.0,3.0,97,0.00,,,0.00,Wunderground v.1.15,2013-12-04 07:26:00,
2013-12-04 01:27:00,31.9,31.1,29.71,NNE,22,3.0,3.0,97,0.00,,,0.00,Wunderground v.1.15,2013-12-04 07:27:00,
2013-12-04 01:28:00,31.9,31.1,29.71,NNE,22,3.0,3.0,97,0.00,,,0.00,Wunderground v.1.15,2013-12-04 07:28:00,
2013-12-04 01:29:00,31.9,31.1,29.71,NNE,22,3.0,3.0,97,0.00,,,0.00,Wunderground v.1.15,2013-12-04 07:29:00,
2013-12-04 01:32:00,31.9,31.1,29.71,NNE,22,4.0,4.0,97,0.00,,,0.00,Wunderground v.1.15,2013-12-04 07:32:00,
2013-12-04 01:33:00,31.9,31.1,29.71,NNE,22,3.0,4.0,97,0.00,,,0.00,Wunderground v.1.15,2013-12-04 07:33:00,
2013-12-04 01:35:00,31.9,31.1,29.71,NNE,22,4.0,4.0,97,0.00,,,0.00,Wunderground v.1.15,2013-12-04 07:35:00,
2013-12-04 01:36:00,31.9,31.1,29.71,NNE,22,4.0,4.0,97,0.00,,,0.00,Wunderground v.1.15,2013-12-04 07:36:00,
2013-12-04 01:38:00,31.9,31.1,29.71,NNE,22,3.0,4.0,97,0.00,,,0.00,Wunderground v.1.15,2013-12-04 07:38:00,
2013-12-04 01:39:00,31.9,31.1,29.71,NNE,22,4.0,4.0,97,0.00,,,0.00,Wunderground v.1.15,2013-12-04 07:39:00,
2013-12-04 01:40:00,31.9,31.1,29.71,NNE,22,5.0,5.0,97,0.00,,,0.00,Wunderground v.1.15,2013-12-04 07:40:00,
2013-12-04 01:42:00,31.9,31.1,29.71,NNE,22,3.0,5.0,97,0.00,,,0.00,Wunderground v.1.15,2013-12-04 07:42:00,
2013-12-04 01:45:00,31.9,31.1,29.72,NNE,22,2.0,5.0,97,0.00,,,0.00,Wunderground v.1.15,2013-12-04 07:45:00,
2013-12-04 01:46:00,31.9,31.1,29.72,NNE,22,2.0,5.0,97,0.00,,,0.00,Wunderground v.1.15,2013-12-04 07:46:00,
2013-12-04 01:47:00,31.9,31.1,29.72,NNE,22,2.0,5.0,97,0.00,,,0.00,Wunderground v.1.15,2013-12-04 07:47:00,
2013-12-04 01:49:00,31.9,31.1,29.72,NNE,22,2.0,5.0,97,0.00,,,0.00,Wunderground v.1.15,2013-12-04 07:49:00,
2013-12-04 01:51:00,31.9,31.1,29.72,NNE,22,2.0,5.0,97,0.00,,,0.00,Wunderground v.1.15,2013-12-04 07:51:00,
2013-12-04 01:52:00,31.9,31.1,29.72,NNE,22,1.0,5.0,97,0.00,,,0.00,Wunderground v.1.15,2013-12-04 07:52:00,
2013-12-04 01:53:00,31.9,31.1,29.72,NNE,22,4.0,5.0,97,0.00,,,0.00,Wunderground v.1.15,2013-12-04 07:53:00,
2013-12-04 01:57:00,31.9,31.1,29.72,NNE,22,2.0,5.0,97,0.00,,,0.00,Wunderground v.1.15,2013-12-04 07:57:00,
2013-12-04 01:58:00,31.9,31.1,29.72,NNE,22,1.0,5.0,97,0.00,,,0.00,Wunderground v.1.15,2013-12-04 07:58:00,
2013-12-04 01:59:00,31.9,31.1,29.72,NNE,22,3.0,5.0,97,0.00,,,0.00,Wunderground v.1.15,2013-12-04 07:59:00,
2013-12-04 02:00:00,31.9,31.1,29.72,NNE,22,1.0,2.0,97,0.00,,,0.00,Wunderground v.1.15,2013-12-04 08:00:00,
2013-12-04 02:01:00,31.9,31.1,29.72,NNE,22,1.0,2.0,97,0.00,,,0.00,Wunderground v.1.15,2013-12-04 08:01:00,
2013-12-04 02:02:00,31.9,31.1,29.72,NNE,22,2.0,3.0,97,0.00,,,0.00,Wunderground v.1.15,2013-12-04 08:02:00,
2013-12-04 02:03:00,31.9,31.1,29.71,NNE,22,2.0,3.0,97,0.00,,,0.00,Wunderground v.1.15,2013-12-04 08:03:00,
2013-12-04 02:05:00,31.9,31.1,29.71,NNE,22,3.0,3.0,97,0.00,,,0.00,Wunderground v.1.15,2013-12-04 08:05:00,
2013-12-04 02:06:00,31.9,31.1,29.72,NNE,22,2.0,3.0,97,0.00,,,0.00,Wunderground v.1.15,2013-12-04 08:06:00,
2013-12-04 02:07:00,31.9,31.1,29.72,NNE,22,2.0,3.0,97,0.00,,,0.00,Wunderground v.1.15,2013-12-04 08:07:00,
2013-12-04 02:08:00,31.9,31.1,29.72,NNE,22,2.0,3.0,97,0.00,,,0.00,Wunderground v.1.15,2013-12-04 08:08:00,
2013-12-04 02:10:00,31.9,31.1,29.72,NNE,22,2.0,2.0,97,0.00,,,0.00,Wunderground v.1.15,2013-12-04 08:10:00,
2013-12-04 02:12:00,31.9,31.1,29.72,NNE,22,2.0,3.0,97,0.00,,,0.00,Wunderground v.1.15,2013-12-04 08:12:00,
2013-12-04 02:13:00,31.9,31.1,29.72,NNE,22,3.0,3.0,97,0.00,,,0.00,Wunderground v.1.15,2013-12-04 08:13:00,
2013-12-04 02:16:00,31.9,31.1,29.72,NNE,22,2.0,3.0,97,0.00,,,0.00,Wunderground v.1.15,2013-12-04 08:16:00,
2013-12-04 02:18:00,31.9,31.1,29.72,NNE,22,1.0,3.0,97,0.00,,,0.00,Wunderground v.1.15,2013-12-04 08:18:00,
2013-12-04 02:20:00,31.9,31.1,29.72,NNE,22,1.0,2.0,97,0.00,,,0.00,Wunderground v.1.15,2013-12-04 08:20:00,
2013-12-04 02:21:00,31.9,31.1,29.72,NNE,22,2.0,3.0,97,0.00,,,0.00,Wunderground v.1.15,2013-12-04 08:21:00,
2013-12-04 02:22:00,31.9,31.1,29.72,NNE,22,3.0,3.0,97,0.00,,,0.00,Wunderground v.1.15,2013-12-04 08:22:00,
2013-12-04 02:23:00,31.9,31.1,29.72,NNE,22,1.0,4.0,97,0.00,,,0.00,Wunderground v.1.15,2013-12-04 08:23:00,
2013-12-04 02:25:00,31.9,31.1,29.72,NNE,22,1.0,4.0,97,0.00,,,0.00,Wunderground v.1.15,2013-12-04 08:25:00,
2013-12-04 02:26:00,31.9,31.1,29.72,NNE,22,2.0,4.0,97,0.00,,,0.00,Wunderground v.1.15,2013-12-04 08:26:00,
2013-12-04 02:27:00,31.9,31.1,29.72,NNE,22,5.0,5.0,97,0.00,,,0.00,Wunderground v.1.15,2013-12-04 08:27:00,
2013-12-04 02:28:00,31.9,31.1,29.71,NNE,22,3.0,5.0,97,0.00,,,0.00,Wunderground v.1.15,2013-12-04 08:28:00,
2013-12-04 02:29:00,31.9,31.1,29.71,NNE,22,4.0,5.0,97,0.00,,,0.00,Wunderground v.1.15,2013-12-04 08:29:00,
2013-12-04 02:30:00,31.9,31.1,29.71,NNE,22,2.0,5.0,97,0.00,,,0.00,Wunderground v.1.15,2013-12-04 08:30:00,
2013-12-04 02:31:00,31.9,31.1,29.71,NNE,22,2.0,5.0,97,0.00,,,0.00,Wunderground v.1.15,2013-12-04 08:31:00,
2013-12-04 02:32:00,31.9,31.1,29.71,NNE,22,4.0,5.0,97,0.00,,,0.00,Wunderground v.1.15,2013-12-04 08:32:00,
2013-12-04 02:33:00,31.9,31.1,29.71,NNE,22,5.0,5.0,97,0.00,,,0.00,Wunderground v.1.15,2013-12-04 08:33:00,
2013-12-04 02:34:00,31.9,31.1,29.71,NNE,22,5.0,5.0,97,0.00,,,0.00,Wunderground v.1.15,2013-12-04 08:34:00,
2013-12-04 02:35:00,32.0,31.2,29.71,NNE,22,2.0,5.0,97,0.00,,,0.00,Wunderground v.1.15,2013-12-04 08:35:00,
2013-12-04 02:36:00,31.9,31.1,29.71,NNE,22,2.0,5.0,97,0.00,,,0.00,Wunderground v.1.15,2013-12-04 08:36:00,
2013-12-04 02:37:00,31.9,31.1,29.71,NNE,22,2.0,5.0,97,0.00,,,0.00,Wunderground v.1.15,2013-12-04 08:37:00,
2013-12-04 02:38:00,31.9,31.1,29.71,NNE,22,2.0,5.0,97,0.00,,,0.00,Wunderground v.1.15,2013-12-04 08:38:00,
2013-12-04 02:39:00,31.9,31.1,29.71,NNE,22,2.0,5.0,97,0.00,,,0.00,Wunderground v.1.15,2013-12-04 08:39:00,
2013-12-04 02:40:00,31.9,31.1,29.71,NNE,22,3.0,3.0,97,0.00,,,0.00,Wunderground v.1.15,2013-12-04 08:40:00,
2013-12-04 02:41:00,31.9,31.1,29.71,NNE,22,2.0,4.0,97,0.00,,,0.00,Wunderground v.1.15,2013-12-04 08:41:00,
2013-12-04 02:42:00,31.9,31.1,29.71,NNE,22,3.0,4.0,97,0.00,,,0.00,Wunderground v.1.15,2013-12-04 08:42:00,
2013-12-04 02:44:00,31.9,31.1,29.71,NNE,22,2.0,4.0,97,0.00,,,0.00,Wunderground v.1.15,2013-12-04 08:44:00,
2013-12-04 02:45:00,31.9,31.1,29.71,NNE,22,3.0,4.0,97,0.00,,,0.00,Wunderground v.1.15,2013-12-04 08:45:00,
2013-12-04 02:46:00,31.9,31.1,29.71,NNE,22,2.0,4.0,97,0.00,,,0.00,Wunderground v.1.15,2013-12-04 08:46:00,
2013-12-04 02:48:00,31.9,31.1,29.71,NNE,22,3.0,4.0,97,0.00,,,0.00,Wunderground v.1.15,2013-12-04 08:48:00,
2013-12-04 02:50:00,31.9,31.1,29.71,NNE,22,3.0,3.0,97,0.00,,,0.00,Wunderground v.1.15,2013-12-04 08:50:00,
2013-12-04 02:51:00,31.9,31.1,29.71,NNE,22,3.0,3.0,97,0.00,,,0.00,Wunderground v.1.15,2013-12-04 08:51:00,
2013-12-04 02:52:00,31.9,31.1,29.70,NNE,22,3.0,4.0,97,0.00,,,0.00,Wunderground v.1.15,2013-12-04 08:52:00,
2013-12-04 02:53:00,31.9,31.1,29.70,NNE,22,6.0,6.0,97,0.00,,,0.00,Wunderground v.1.15,2013-12-04 08:53:00,
2013-12-04 02:55:00,31.9,31.1,29.70,NNE,22,8.0,8.0,97,0.00,,,0.00,Wunderground v.1.15,2013-12-04 08:55:00,
2013-12-04 02:56:00,31.9,31.1,29.70,NNE,22,4.0,8.0,97,0.00,,,0.00,Wunderground v.1.15,2013-12-04 08:56:00,
2013-12-04 02:57:00,31.9,31.1,29.70,NNE,22,8.0,8.0,97,0.00,,,0.00,Wunderground v.1.15,2013-12-04 08:57:00,
2013-12-04 02:58:00,31.9,31.1,29.70,NNE,22,5.0,8.0,97,0.00,,,0.00,Wunderground v.1.15,2013-12-04 08:58:00,
2013-12-04 02:59:00,31.9,31.1,29.70,NNE,22,6.0,8.0,97,0.00,,,0.00,Wunderground v.1.15,2013-12-04 08:59:00,
2013-12-04 03:01:00,31.9,31.1,29.70,NNE,22,5.0,6.0,97,0.00,,,0.00,Wunderground v.1.15,2013-12-04 09:01:00,
2013-12-04 03:02:00,31.9,30.9,29.70,NNE,22,3.0,6.0,96,0.00,,,0.00,Wunderground v.1.15,2013-12-04 09:02:00,
2013-12-04 03:04:00,31.9,31.1,29.70,NNE,22,3.0,6.0,97,0.00,,,0.00,Wunderground v.1.15,2013-12-04 09:04:00,
2013-12-04 03:06:00,31.9,31.1,29.70,NNE,22,6.0,6.0,97,0.00,,,0.00,Wunderground v.1.15,2013-12-04 09:06:00,
2013-12-04 03:07:00,31.9,31.1,29.70,NNE,22,5.0,6.0,97,0.00,,,0.00,Wunderground v.1.15,2013-12-04 09:07:00,
2013-12-04 03:08:00,31.9,31.1,29.70,NNE,22,5.0,6.0,97,0.00,,,0.00,Wunderground v.1.15,2013-12-04 09:08:00,
2013-12-04 03:10:00,31.9,31.1,29.70,NNE,22,6.0,7.0,97,0.00,,,0.00,Wunderground v.1.15,2013-12-04 09:10:00,
2013-12-04 03:11:00,31.9,30.9,29.69,NNE,22,4.0,7.0,96,0.00,,,0.00,Wunderground v.1.15,2013-12-04 09:11:00,
2013-12-04 03:12:00,31.9,30.9,29.69,NNE,22,3.0,7.0,96,0.00,,,0.00,Wunderground v.1.15,2013-12-04 09:12:00,
2013-12-04 03:13:00,31.9,31.1,29.69,NNE,22,4.0,7.0,97,0.00,,,0.00,Wunderground v.1.15,2013-12-04 09:13:00,
2013-12-04 03:15:00,31.9,31.1,29.69,NNE,22,5.0,7.0,97,0.00,,,0.00,Wunderground v.1.15,2013-12-04 09:15:00,
2013-12-04 18:17:00,21.5,19.5,29.69,WNW,283,4.0,5.0,92,0.00,,,0.00,Wunderground v.1.15,2013-12-05 00:17:00,
2013-12-04 18:18:00,21.5,19.5,29.69,West,280,4.0,7.0,92,0.00,,,0.00,Wunderground v.1.15,2013-12-05 00:18:00,
2013-12-04 18:22:00,21.5,19.5,29.69,West,273,6.0,8.0,92,0.00,,,0.00,Wunderground v.1.15,2013-12-05 00:22:00,
2013-12-04 18:23:00,21.6,19.6,29.69,West,277,2.0,9.0,92,0.00,,,0.00,Wunderground v.1.15,2013-12-05 00:23:00,
2013-12-04 18:24:00,21.6,19.6,29.70,West,279,6.0,9.0,92,0.00,,,0.00,Wunderground v.1.15,2013-12-05 00:24:00,
2013-12-04 18:27:00,21.6,19.6,29.70,West,278,3.0,5.0,92,0.00,,,0.00,Wunderground v.1.15,2013-12-05 00:27:00,
2013-12-04 18:28:00,21.6,19.6,29.70,West,279,1.0,5.0,92,0.00,,,0.00,Wunderground v.1.15,2013-12-05 00:28:00,
2013-12-04 18:29:00,21.6,19.6,29.70,West,279,4.0,5.0,92,0.00,,,0.00,Wunderground v.1.15,2013-12-05 00:29:00,
2013-12-04 18:32:00,21.6,19.6,29.70,West,279,6.0,6.0,92,0.00,,,0.00,Wunderground v.1.15,2013-12-05 00:32:00,
2013-12-04 18:34:00,21.6,19.6,29.71,WNW,284,4.0,7.0,92,0.00,,,0.00,Wunderground v.1.15,2013-12-05 00:34:00,
2013-12-04 18:35:00,21.7,19.7,29.71,West,281,4.0,7.0,92,0.00,,,0.00,Wunderground v.1.15,2013-12-05 00:35:00,
2013-12-04 18:37:00,21.7,19.7,29.71,West,273,7.0,7.0,92,0.00,,,0.00,Wunderground v.1.15,2013-12-05 00:37:00,
2013-12-04 18:39:00,21.7,19.7,29.72,West,274,3.0,7.0,92,0.00,,,0.00,Wunderground v.1.15,2013-12-05 00:39:00,
2013-12-04 18:40:00,21.7,19.7,29.72,West,274,3.0,7.0,92,0.00,,,0.00,Wunderground v.1.15,2013-12-05 00:40:00,
2013-12-04 18:43:00,21.6,19.6,29.72,West,276,2.0,7.0,92,0.00,,,0.00,Wunderground v.1.15,2013-12-05 00:43:00,
2013-12-04 18:44:00,21.6,19.6,29.72,West,280,2.0,7.0,92,0.00,,,0.00,Wunderground v.1.15,2013-12-05 00:44:00,
2013-12-04 18:45:00,21.7,19.7,29.72,West,281,2.0,7.0,92,0.00,,,0.00,Wunderground v.1.15,2013-12-05 00:45:00,
2013-12-04 18:46:00,21.6,19.6,29.72,West,278,3.0,7.0,92,0.00,,,0.00,Wunderground v.1.15,2013-12-05 00:46:00,
2013-12-04 18:48:00,21.6,19.6,29.72,West,276,4.0,5.0,92,0.00,,,0.00,Wunderground v.1.15,2013-12-05 00:48:00,
2013-12-04 18:49:00,21.6,19.6,29.72,West,278,2.0,5.0,92,0.00,,,0.00,Wunderground v.1.15,2013-12-05 00:49:00,
2013-12-04 18:50:00,21.6,19.6,29.72,West,274,4.0,5.0,92,0.00,,,0.00,Wunderground v.1.15,2013-12-05 00:50:00,
2013-12-04 18:51:00,21.6,19.6,29.72,West,267,6.0,6.0,92,0.00,,,0.00,Wunderground v.1.15,2013-12-05 00:51:00,
2013-12-04 18:52:00,21.6,19.6,29.72,West,279,5.0,6.0,92,0.00,,,0.00,Wunderground v.1.15,2013-12-05 00:52:00,
2013-12-04 18:53:00,21.6,19.6,29.73,West,275,4.0,6.0,92,0.00,,,0.00,Wunderground v.1.15,2013-12-05 00:53:00,
2013-12-04 18:55:00,21.6,19.6,29.73,West,277,4.0,6.0,92,0.00,,,0.00,Wunderground v.1.15,2013-12-05 00:55:00,
2013-12-04 18:56:00,21.6,19.6,29.72,West,277,1.0,6.0,92,0.00,,,0.00,Wunderground v.1.15,2013-12-05 00:56:00,
2013-12-04 18:57:00,21.6,19.6,29.72,West,276,2.0,3.0,92,0.00,,,0.00,Wunderground v.1.15,2013-12-05 00:57:00,
2013-12-04 18:59:00,21.5,19.5,29.72,West,277,3.0,5.0,92,0.00,,,0.00,Wunderground v.1.15,2013-12-05 00:59:00,
2013-12-04 19:01:00,21.5,19.5,29.72,WNW,284,3.0,4.0,92,0.00,,,0.00,Wunderground v.1.15,2013-12-05 01:01:00,
2013-12-04 19:02:00,21.5,19.5,29.72,West,281,2.0,4.0,92,0.00,,,0.00,Wunderground v.1.15,2013-12-05 01:02:00,
2013-12-04 19:03:00,21.5,19.5,29.73,West,279,2.0,4.0,92,0.00,,,0.00,Wunderground v.1.15,2013-12-05 01:03:00,
2013-12-04 19:04:00,21.5,19.5,29.73,West,275,4.0,6.0,92,0.00,,,0.00,Wunderground v.1.15,2013-12-05 01:04:00,
2013-12-04 19:06:00,21.5,19.5,29.73,West,275,4.0,6.0,92,0.00,,,0.00,Wunderground v.1.15,2013-12-05 01:06:00,
2013-12-04 19:08:00,21.5,19.5,29.73,West,275,4.0,6.0,92,0.00,,,0.00,Wunderground v.1.15,2013-12-05 01:08:00,
2013-12-04 19:09:00,21.5,19.5,29.74,West,275,4.0,6.0,92,0.00,,,0.00,Wunderground v.1.15,2013-12-05 01:09:00,
2013-12-04 19:11:00,21.6,19.6,29.74,West,275,1.0,3.0,92,0.00,,,0.00,Wunderground v.1.15,2013-12-05 01:11:00,
2013-12-04 19:13:00,21.5,19.5,29.74,West,275,0.0,3.0,92,0.00,,,0.00,Wunderground v.1.15,2013-12-05 01:13:00,
2013-12-04 19:14:00,21.5,19.5,29.73,West,275,2.0,4.0,92,0.00,,,0.00,Wunderground v.1.15,2013-12-05 01:14:00,
2013-12-04 19:15:00,21.5,19.5,29.73,West,275,0.0,4.0,92,0.00,,,0.00,Wunderground v.1.15,2013-12-05 01:15:00,
2013-12-04 19:18:00,21.5,19.5,29.73,West,275,3.0,4.0,92,0.00,,,0.00,Wunderground v.1.15,2013-12-05 01:18:00,
2013-12-04 19:19:00,21.5,19.5,29.73,West,275,1.0,4.0,92,0.00,,,0.00,Wunderground v.1.15,2013-12-05 01:19:00,
2013-12-04 19:20:00,21.5,19.5,29.73,West,275,0.0,2.0,92,0.00,,,0.00,Wunderground v.1.15,2013-12-05 01:20:00,
2013-12-04 19:23:00,21.4,19.4,29.72,West,276,3.0,3.0,92,0.00,,,0.00,Wunderground v.1.15,2013-12-05 01:23:00,
2013-12-04 19:24:00,21.3,19.3,29.72,West,276,2.0,3.0,92,0.00,,,0.00,Wunderground v.1.15,2013-12-05 01:24:00,
2013-12-04 19:25:00,21.3,19.3,29.71,West,276,0.0,3.0,92,0.00,,,0.00,Wunderground v.1.15,2013-12-05 01:25:00,
2013-12-04 19:26:00,21.3,19.1,29.71,West,276,0.0,3.0,91,0.00,,,0.00,Wunderground v.1.15,2013-12-05 01:26:00,
2013-12-04 19:29:00,21.2,19.0,29.71,West,276,3.0,3.0,91,0.00,,,0.00,Wunderground v.1.15,2013-12-05 01:29:00,
2013-12-04 19:30:00,21.2,19.0,29.71,West,276,0.0,2.0,91,0.00,,,0.00,Wunderground v.1.15,2013-12-05 01:30:00,
2013-12-04 19:31:00,21.2,19.0,29.71,West,276,0.0,2.0,91,0.00,,,0.00,Wunderground v.1.15,2013-12-05 01:31:00,
2013-12-04 19:35:00,21.1,18.9,29.71,West,276,4.0,5.0,91,0.00,,,0.00,Wunderground v.1.15,2013-12-05 01:35:00,
2013-12-04 19:36:00,21.1,18.9,29.71,West,277,2.0,5.0,91,0.00,,,0.00,Wunderground v.1.15,2013-12-05 01:36:00,
2013-12-04 19:37:00,21.1,18.9,29.72,West,277,1.0,5.0,91,0.00,,,0.00,Wunderground v.1.15,2013-12-05 01:37:00,
2013-12-04 19:38:00,21.1,18.9,29.72,West,277,2.0,5.0,91,0.00,,,0.00,Wunderground v.1.15,2013-12-05 01:38:00,
2013-12-04 19:41:00,21.1,19.1,29.72,West,276,6.0,8.0,92,0.00,,,0.00,Wunderground v.1.15,2013-12-05 01:41:00,
2013-12-04 19:42:00,21.1,18.9,29.72,West,277,3.0,8.0,91,0.00,,,0.00,Wunderground v.1.15,2013-12-05 01:42:00,
2013-12-04 19:43:00,21.0,18.8,29.73,West,262,4.0,8.0,91,0.00,,,0.00,Wunderground v.1.15,2013-12-05 01:43:00,
2013-12-04 19:46:00,20.8,18.6,29.72,West,278,3.0,8.0,91,0.00,,,0.00,Wunderground v.1.15,2013-12-05 01:46:00,
2013-12-04 19:47:00,20.7,18.5,29.72,WNW,298,2.0,8.0,91,0.00,,,0.00,Wunderground v.1.15,2013-12-05 01:47:00,
2013-12-04 19:48:00,20.7,18.5,29.72,WNW,284,4.0,8.0,91,0.00,,,0.00,Wunderground v.1.15,2013-12-05 01:48:00,
2013-12-04 19:49:00,20.7,18.5,29.72,West,279,6.0,8.0,91,0.00,,,0.00,Wunderground v.1.15,2013-12-05 01:49:00,
2013-12-04 19:51:00,20.5,18.0,29.73,West,271,6.0,6.0,90,0.00,,,0.00,Wunderground v.1.15,2013-12-05 01:51:00,
2013-12-04 19:53:00,20.4,17.9,29.73,West,265,7.0,9.0,90,0.00,,,0.00,Wunderground v.1.15,2013-12-05 01:53:00,
2013-12-04 19:54:00,20.4,17.9,29.73,West,265,7.0,9.0,90,0.00,,,0.00,Wunderground v.1.15,2013-12-05 01:54:00,
2013-12-04 19:56:00,20.4,17.9,29.74,West,265,7.0,9.0,90,0.00,,,0.00,Wunderground v.1.15,2013-12-05 01:56:00,
2013-12-04 19:59:00,19.9,17.4,29.73,West,271,5.0,9.0,90,0.00,,,0.00,Wunderground v.1.15,2013-12-05 01:59:00,
2013-12-04 20:01:00,19.8,17.3,29.73,WNW,286,2.0,6.0,90,0.00,,,0.00,Wunderground v.1.15,2013-12-05 02:01:00,
2013-12-04 20:02:00,19.8,17.3,29.73,West,275,4.0,6.0,90,0.00,,,0.00,Wunderground v.1.15,2013-12-05 02:02:00,
2013-12-04 20:04:00,19.7,17.2,29.73,West,272,3.0,8.0,90,0.00,,,0.00,Wunderground v.1.15,2013-12-05 02:04:00,
2013-12-04 20:05:00,19.7,17.0,29.73,West,273,3.0,8.0,89,0.00,,,0.00,Wunderground v.1.15,2013-12-05 02:05:00,
2013-12-04 20:06:00,19.6,16.9,29.73,West,274,2.0,8.0,89,0.00,,,0.00,Wunderground v.1.15,2013-12-05 02:06:00,
2013-12-04 20:07:00,19.6,16.9,29.73,West,273,6.0,8.0,89,0.00,,,0.00,Wunderground v.1.15,2013-12-05 02:07:00,
2013-12-04 20:09:00,19.4,16.7,29.73,West,281,3.0,8.0,89,0.00,,,0.00,Wunderground v.1.15,2013-12-05 02:09:00,
2013-12-04 20:10:00,19.4,18.9,29.73,WNW,291,4.0,6.0,98,0.00,,,0.00,Wunderground v.1.15,2013-12-05 02:10:00,
2013-12-04 20:11:00,19.3,16.6,29.73,West,279,4.0,7.0,89,0.00,,,0.00,Wunderground v.1.15,2013-12-05 02:11:00,
2013-12-04 20:12:00,19.2,16.5,29.73,WNW,286,4.0,7.0,89,0.00,,,0.00,Wunderground v.1.15,2013-12-05 02:12:00,
2013-12-04 20:14:00,18.9,15.9,29.73,WNW,289,6.0,7.0,88,0.00,,,0.00,Wunderground v.1.15,2013-12-05 02:14:00,
2013-12-04 20:15:00,18.8,15.8,29.73,West,267,3.0,7.0,88,0.00,,,0.00,Wunderground v.1.15,2013-12-05 02:15:00,
2013-12-04 20:16:00,18.6,15.6,29.73,West,272,4.0,7.0,88,0.00,,,0.00,Wunderground v.1.15,2013-12-05 02:16:00,
2013-12-04 20:17:00,18.4,15.2,29.74,West,277,6.0,7.0,87,0.00,,,0.00,Wunderground v.1.15,2013-12-05 02:17:00,
2013-12-04 20:20:00,17.9,14.7,29.75,West,280,3.0,6.0,87,0.00,,,0.00,Wunderground v.1.15,2013-12-05 02:20:00,
2013-12-04 20:21:00,17.9,14.7,29.75,West,277,2.0,6.0,87,0.00,,,0.00,Wunderground v.1.15,2013-12-05 02:21:00,
2013-12-04 20:22:00,17.7,14.5,29.76,West,277,4.0,6.0,87,0.00,,,0.00,Wunderground v.1.15,2013-12-05 02:22:00,
2013-12-04 20:23:00,17.7,14.5,29.76,WNW,288,6.0,6.0,87,0.00,,,0.00,Wunderground v.1.15,2013-12-05 02:23:00,
2013-12-04 20:25:00,17.4,14.2,29.76,West,271,6.0,9.0,87,0.00,,,0.00,Wunderground v.1.15,2013-12-05 02:25:00,
2013-12-04 20:26:00,17.2,14.0,29.76,West,273,5.0,9.0,87,0.00,,,0.00,Wunderground v.1.15,2013-12-05 02:26:00,
2013-12-04 20:28:00,17.2,14.0,29.76,WNW,298,3.0,9.0,87,0.00,,,0.00,Wunderground v.1.15,2013-12-05 02:28:00,
2013-12-04 20:30:00,17.0,13.8,29.77,West,273,2.0,5.0,87,0.00,,,0.00,Wunderground v.1.15,2013-12-05 02:30:00,
2013-12-04 20:32:00,16.9,14.0,29.77,WNW,292,4.0,6.0,88,0.00,,,0.00,Wunderground v.1.15,2013-12-05 02:32:00,
2013-12-04 20:33:00,16.8,13.9,29.77,WNW,283,3.0,6.0,88,0.00,,,0.00,Wunderground v.1.15,2013-12-05 02:33:00,
2013-12-04 20:36:00,16.7,13.5,29.77,West,274,7.0,7.0,87,0.00,,,0.00,Wunderground v.1.15,2013-12-05 02:36:00,
2013-12-04 20:37:00,16.6,13.4,29.77,WNW,287,2.0,7.0,87,0.00,,,0.00,Wunderground v.1.15,2013-12-05 02:37:00,
2013-12-04 20:38:00,16.5,13.3,29.77,West,281,1.0,7.0,87,0.00,,,0.00,Wunderground v.1.15,2013-12-05 02:38:00,
2013-12-04 20:39:00,16.4,13.2,29.77,West,278,1.0,7.0,87,0.00,,,0.00,Wunderground v.1.15,2013-12-05 02:39:00,
2013-12-04 20:41:00,16.2,13.0,29.77,WNW,283,2.0,6.0,87,0.00,,,0.00,Wunderground v.1.15,2013-12-05 02:41:00,
2013-12-04 20:42:00,16.2,13.0,29.77,WNW,284,2.0,6.0,87,0.00,,,0.00,Wunderground v.1.15,2013-12-05 02:42:00,
2013-12-04 20:43:00,16.1,12.9,29.77,NW,304,5.0,6.0,87,0.00,,,0.00,Wunderground v.1.15,2013-12-05 02:43:00,
2013-12-04 20:44:00,15.9,12.7,29.76,West,271,3.0,10.0,87,0.00,,,0.00,Wunderground v.1.15,2013-12-05 02:44:00,
2013-12-04 20:46:00,15.6,12.2,29.76,West,270,4.0,10.0,86,0.00,,,0.00,Wunderground v.1.15,2013-12-05 02:46:00,
2013-12-04 20:47:00,15.4,12.0,29.76,West,274,3.0,10.0,86,0.00,,,0.00,Wunderground v.1.15,2013-12-05 02:47:00,
2013-12-04 20:48:00,15.3,11.9,29.76,WNW,283,4.0,10.0,86,0.00,,,0.00,Wunderground v.1.15,2013-12-05 02:48:00,
2013-12-04 20:50:00,15.2,11.8,29.76,WNW,282,4.0,4.0,86,0.00,,,0.00,Wunderground v.1.15,2013-12-05 02:50:00,
2013-12-04 20:52:00,14.9,11.5,29.77,WNW,290,5.0,6.0,86,0.00,,,0.00,Wunderground v.1.15,2013-12-05 02:52:00,
2013-12-04 20:53:00,14.9,11.5,29.77,West,281,5.0,6.0,86,0.00,,,0.00,Wunderground v.1.15,2013-12-05 02:53:00,
2013-12-04 20:54:00,14.7,11.3,29.77,West,275,5.0,6.0,86,0.00,,,0.00,Wunderground v.1.15,2013-12-05 02:54:00,
2013-12-04 20:55:00,14.6,11.2,29.77,West,266,4.0,9.0,86,0.00,,,0.00,Wunderground v.1.15,2013-12-05 02:55:00,
2013-12-04 20:57:00,14.4,11.0,29.77,West,277,4.0,9.0,86,0.00,,,0.00,Wunderground v.1.15,2013-12-05 02:57:00,
2013-12-04 20:58:00,14.4,11.0,29.77,WNW,285,5.0,9.0,86,0.00,,,0.00,Wunderground v.1.15,2013-12-05 02:58:00,
2013-12-04 20:59:00,14.3,10.9,29.78,West,278,4.0,9.0,86,0.00,,,0.00,Wunderground v.1.15,2013-12-05 02:59:00,
2013-12-04 21:00:00,14.1,10.7,29.78,WNW,286,4.0,4.0,86,0.00,,,0.00,Wunderground v.1.15,2013-12-05 03:00:00,
2013-12-04 21:01:00,14.1,10.7,29.78,WNW,287,5.0,5.0,86,0.00,,,0.00,Wunderground v.1.15,2013-12-05 03:01:00,
2013-12-04 21:03:00,14.0,10.6,29.78,West,277,4.0,7.0,86,0.00,,,0.00,Wunderground v.1.15,2013-12-05 03:03:00,
2013-12-04 21:05:00,13.8,10.6,29.78,West,273,4.0,9.0,87,0.00,,,0.00,Wunderground v.1.15,2013-12-05 03:05:00,
2013-12-04 21:06:00,13.8,10.6,29.78,West,276,2.0,9.0,87,0.00,,,0.00,Wunderground v.1.15,2013-12-05 03:06:00,
2013-12-04 21:08:00,13.6,10.5,29.79,West,280,3.0,9.0,87,0.00,,,0.00,Wunderground v.1.15,2013-12-05 03:08:00,
2013-12-04 21:09:00,13.6,10.5,29.79,West,272,5.0,9.0,87,0.00,,,0.00,Wunderground v.1.15,2013-12-05 03:09:00,
2013-12-04 21:10:00,13.5,10.4,29.79,West,275,2.0,5.0,87,0.00,,,0.00,Wunderground v.1.15,2013-12-05 03:10:00,
2013-12-04 21:11:00,13.5,10.4,29.79,WNW,284,3.0,5.0,87,0.00,,,0.00,Wunderground v.1.15,2013-12-05 03:11:00,
2013-12-04 21:13:00,13.3,10.2,29.78,West,267,7.0,8.0,87,0.00,,,0.00,Wunderground v.1.15,2013-12-05 03:13:00,
2013-12-04 21:14:00,13.3,10.2,29.78,WNW,290,4.0,8.0,87,0.00,,,0.00,Wunderground v.1.15,2013-12-05 03:14:00,
2013-12-04 21:16:00,13.1,9.7,29.78,WNW,283,4.0,8.0,86,0.00,,,0.00,Wunderground v.1.15,2013-12-05 03:16:00,
2013-12-04 21:18:00,13.0,9.6,29.78,WNW,283,3.0,8.0,86,0.00,,,0.00,Wunderground v.1.15,2013-12-05 03:18:00,
2013-12-04 21:19:00,13.0,9.6,29.78,West,271,6.0,8.0,86,0.00,,,0.00,Wunderground v.1.15,2013-12-05 03:19:00,
2013-12-04 21:21:00,12.8,9.4,29.78,West,271,4.0,6.0,86,0.00,,,0.00,Wunderground v.1.15,2013-12-05 03:21:00,
2013-12-04 21:23:00,12.6,9.2,29.78,West,271,6.0,7.0,86,0.00,,,0.00,Wunderground v.1.15,2013-12-05 03:23:00,
2013-12-04 21:24:00,12.6,9.2,29.78,WSW,251,7.0,7.0,86,0.00,,,0.00,Wunderground v.1.15,2013-12-05 03:24:00,
2013-12-04 21:26:00,12.5,9.1,29.79,WNW,286,5.0,9.0,86,0.00,,,0.00,Wunderground v.1.15,2013-12-05 03:26:00,
2013-12-04 21:27:00,12.5,9.1,29.79,WNW,287,2.0,9.0,86,0.00,,,0.00,Wunderground v.1.15,2013-12-05 03:27:00,
2013-12-04 21:29:00,12.4,9.0,29.79,West,262,6.0,9.0,86,0.00,,,0.00,Wunderground v.1.15,2013-12-05 03:29:00,
2013-12-04 21:30:00,12.4,9.0,29.79,West,274,5.0,5.0,86,0.00,,,0.00,Wunderground v.1.15,2013-12-05 03:30:00,
2013-12-04 21:31:00,12.3,8.9,29.80,WNW,296,6.0,6.0,86,0.00,,,0.00,Wunderground v.1.15,2013-12-05 03:31:00,
2013-12-04 21:32:00,12.3,8.9,29.80,WNW,284,5.0,6.0,86,0.00,,,0.00,Wunderground v.1.15,2013-12-05 03:32:00,
2013-12-04 21:34:00,12.3,8.9,29.80,WNW,294,5.0,8.0,86,0.00,,,0.00,Wunderground v.1.15,2013-12-05 03:34:00,
2013-12-04 21:36:00,12.2,8.8,29.80,West,275,6.0,8.0,86,0.00,,,0.00,Wunderground v.1.15,2013-12-05 03:36:00,
2013-12-04 21:37:00,12.2,8.8,29.80,West,271,5.0,8.0,86,0.00,,,0.00,Wunderground v.1.15,2013-12-05 03:37:00,
2013-12-04 21:39:00,12.2,8.8,29.80,WNW,287,2.0,8.0,86,0.00,,,0.00,Wunderground v.1.15,2013-12-05 03:39:00,
2013-12-04 21:40:00,12.2,8.8,29.80,West,281,6.0,6.0,86,0.00,,,0.00,Wunderground v.1.15,2013-12-05 03:40:00,
2013-12-04 21:42:00,12.1,8.7,29.81,WNW,292,8.0,8.0,86,0.00,,,0.00,Wunderground v.1.15,2013-12-05 03:42:00,
2013-12-04 21:43:00,12.1,8.7,29.81,WNW,290,8.0,8.0,86,0.00,,,0.00,Wunderground v.1.15,2013-12-05 03:43:00,
2013-12-04 21:45:00,12.1,8.7,29.81,WNW,284,4.0,10.0,86,0.00,,,0.00,Wunderground v.1.15,2013-12-05 03:45:00,
2013-12-04 21:47:00,12.1,8.7,29.81,West,275,6.0,10.0,86,0.00,,,0.00,Wunderground v.1.15,2013-12-05 03:47:00,
2013-12-04 21:48:00,12.0,8.6,29.81,West,267,11.0,11.0,86,0.00,,,0.00,Wunderground v.1.15,2013-12-05 03:48:00,
2013-12-04 21:50:00,12.0,8.6,29.82,West,279,3.0,6.0,86,0.00,,,0.00,Wunderground v.1.15,2013-12-05 03:50:00,
2013-12-04 21:52:00,12.0,8.6,29.82,WSW,244,9.0,9.0,86,0.00,,,0.00,Wunderground v.1.15,2013-12-05 03:52:00,
2013-12-04 21:53:00,11.9,8.5,29.82,WNW,286,4.0,9.0,86,0.00,,,0.00,Wunderground v.1.15,2013-12-05 03:53:00,
2013-12-04 21:54:00,11.9,8.5,29.82,West,277,2.0,9.0,86,0.00,,,0.00,Wunderground v.1.15,2013-12-05 03:54:00,
2013-12-04 21:56:00,11.9,8.5,29.82,West,280,8.0,9.0,86,0.00,,,0.00,Wunderground v.1.15,2013-12-05 03:56:00,
2013-12-04 21:57:00,11.9,8.5,29.82,WNW,282,8.0,9.0,86,0.00,,,0.00,Wunderground v.1.15,2013-12-05 03:57:00,
2013-12-04 21:58:00,11.9,8.5,29.82,West,270,5.0,9.0,86,0.00,,,0.00,Wunderground v.1.15,2013-12-05 03:58:00,
2013-12-04 21:59:00,11.8,8.4,29.82,WNW,284,6.0,12.0,86,0.00,,,0.00,Wunderground v.1.15,2013-12-05 03:59:00,
2013-12-04 22:00:00,11.8,8.4,29.82,WNW,284,11.0,13.0,86,0.00,,,0.00,Wunderground v.1.15,2013-12-05 04:00:00,
2013-12-04 22:02:00,11.7,8.3,29.82,West,279,6.0,13.0,86,0.00,,,0.00,Wunderground v.1.15,2013-12-05 04:02:00,
2013-12-04 22:03:00,11.7,8.3,29.82,West,280,4.0,13.0,86,0.00,,,0.00,Wunderground v.1.15,2013-12-05 04:03:00,
2013-12-04 22:04:00,11.6,8.0,29.83,West,281,6.0,13.0,85,0.00,,,0.00,Wunderground v.1.15,2013-12-05 04:04:00,
2013-12-04 22:05:00,11.6,8.0,29.83,NW,309,6.0,13.0,85,0.00,,,0.00,Wunderground v.1.15,2013-12-05 04:05:00,
2013-12-04 22:08:00,11.4,7.8,29.83,WNW,290,6.0,13.0,85,0.00,,,0.00,Wunderground v.1.15,2013-12-05 04:08:00,
2013-12-04 22:09:00,11.4,7.8,29.83,WNW,290,3.0,13.0,85,0.00,,,0.00,Wunderground v.1.15,2013-12-05 04:09:00,
2013-12-04 22:11:00,11.3,7.7,29.83,WNW,282,8.0,10.0,85,0.00,,,0.00,Wunderground v.1.15,2013-12-05 04:11:00,
2013-12-04 22:13:00,11.2,7.6,29.83,West,275,9.0,10.0,85,0.00,,,0.00,Wunderground v.1.15,2013-12-05 04:13:00,
2013-12-04 22:14:00,11.2,7.6,29.83,West,279,8.0,10.0,85,0.00,,,0.00,Wunderground v.1.15,2013-12-05 04:14:00,
2013-12-04 22:15:00,11.1,7.5,29.83,West,273,9.0,11.0,85,0.00,,,0.00,Wunderground v.1.15,2013-12-05 04:15:00,
2013-12-04 22:16:00,11.1,7.5,29.83,WNW,283,3.0,11.0,85,0.00,,,0.00,Wunderground v.1.15,2013-12-05 04:16:00,
2013-12-04 22:17:00,11.1,7.5,29.83,West,271,7.0,11.0,85,0.00,,,0.00,Wunderground v.1.15,2013-12-05 04:17:00,
2013-12-04 22:18:00,11.0,7.4,29.83,West,271,8.0,11.0,85,0.00,,,0.00,Wunderground v.1.15,2013-12-05 04:18:00,
2013-12-04 22:19:00,11.0,7.4,29.83,West,273,5.0,11.0,85,0.00,,,0.00,Wunderground v.1.15,2013-12-05 04:19:00,
2013-12-04 22:20:00,10.9,7.3,29.83,WNW,302,4.0,8.0,85,0.00,,,0.00,Wunderground v.1.15,2013-12-05 04:20:00,
2013-12-04 22:22:00,10.9,7.3,29.83,West,273,4.0,8.0,85,0.00,,,0.00,Wunderground v.1.15,2013-12-05 04:22:00,
2013-12-04 22:23:00,10.9,7.3,29.83,West,262,6.0,8.0,85,0.00,,,0.00,Wunderground v.1.15,2013-12-05 04:23:00,
2013-12-04 22:25:00,10.8,7.2,29.83,West,272,7.0,8.0,85,0.00,,,0.00,Wunderground v.1.15,2013-12-05 04:25:00,
2013-12-04 22:26:00,10.8,7.2,29.83,West,280,6.0,8.0,85,0.00,,,0.00,Wunderground v.1.15,2013-12-05 04:26:00,
2013-12-04 22:28:00,10.8,7.2,29.82,WNW,286,3.0,8.0,85,0.00,,,0.00,Wunderground v.1.15,2013-12-05 04:28:00,
2013-12-04 22:29:00,10.8,7.2,29.82,West,260,6.0,8.0,85,0.00,,,0.00,Wunderground v.1.15,2013-12-05 04:29:00,
2013-12-04 22:30:00,10.8,7.2,29.82,West,267,7.0,8.0,85,0.00,,,0.00,Wunderground v.1.15,2013-12-05 04:30:00,
2013-12-04 22:31:00,10.8,7.2,29.83,West,279,5.0,8.0,85,0.00,,,0.00,Wunderground v.1.15,2013-12-05 04:31:00,
2013-12-04 22:33:00,10.8,7.2,29.83,West,281,6.0,8.0,85,0.00,,,0.00,Wunderground v.1.15,2013-12-05 04:33:00,
2013-12-04 22:34:00,10.8,7.2,29.83,WNW,292,3.0,8.0,85,0.00,,,0.00,Wunderground v.1.15,2013-12-05 04:34:00,
2013-12-04 22:35:00,10.8,7.2,29.83,West,271,4.0,9.0,85,0.00,,,0.00,Wunderground v.1.15,2013-12-05 04:35:00,
2013-12-04 22:36:00,10.8,7.2,29.83,West,267,3.0,9.0,85,0.00,,,0.00,Wunderground v.1.15,2013-12-05 04:36:00,
2013-12-04 22:37:00,10.7,7.1,29.84,WNW,294,4.0,9.0,85,0.00,,,0.00,Wunderground v.1.15,2013-12-05 04:37:00,
2013-12-04 22:39:00,10.7,7.1,29.85,WNW,300,6.0,9.0,85,0.00,,,0.00,Wunderground v.1.15,2013-12-05 04:39:00,
2013-12-04 22:40:00,10.7,7.1,29.85,West,277,4.0,5.0,85,0.00,,,0.00,Wunderground v.1.15,2013-12-05 04:40:00,
2013-12-04 22:41:00,10.7,7.1,29.85,West,277,4.0,8.0,85,0.00,,,0.00,Wunderground v.1.15,2013-12-05 04:41:00,
2013-12-04 22:42:00,10.7,7.1,29.85,WNW,298,4.0,8.0,85,0.00,,,0.00,Wunderground v.1.15,2013-12-05 04:42:00,
2013-12-04 22:44:00,10.7,7.1,29.85,West,272,11.0,11.0,85,0.00,,,0.00,Wunderground v.1.15,2013-12-05 04:44:00,
2013-12-04 22:45:00,10.7,7.1,29.85,West,279,8.0,11.0,85,0.00,,,0.00,Wunderground v.1.15,2013-12-05 04:45:00,
2013-12-04 22:46:00,10.6,7.0,29.85,NW,306,6.0,11.0,85,0.00,,,0.00,Wunderground v.1.15,2013-12-05 04:46:00,
2013-12-04 22:47:00,10.6,6.7,29.86,West,264,8.0,11.0,84,0.00,,,0.00,Wunderground v.1.15,2013-12-05 04:47:00,
2013-12-04 22:50:00,10.5,6.6,29.86,West,280,9.0,9.0,84,0.00,,,0.00,Wunderground v.1.15,2013-12-05 04:50:00,
2013-12-04 22:51:00,10.5,6.6,29.86,WNW,301,4.0,11.0,84,0.00,,,0.00,Wunderground v.1.15,2013-12-05 04:51:00,
2013-12-04 22:52:00,10.4,6.5,29.87,WNW,286,6.0,11.0,84,0.00,,,0.00,Wunderground v.1.15,2013-12-05 04:52:00,
2013-12-04 22:55:00,10.3,6.4,29.87,WNW,286,5.0,11.0,84,0.00,,,0.00,Wunderground v.1.15,2013-12-05 04:55:00,
2013-12-04 22:56:00,10.3,6.4,29.87,WNW,293,9.0,13.0,84,0.00,,,0.00,Wunderground v.1.15,2013-12-05 04:56:00,
2013-12-04 22:57:00,10.3,6.4,29.87,West,265,3.0,13.0,84,0.00,,,0.00,Wunderground v.1.15,2013-12-05 04:57:00,
2013-12-04 23:01:00,10.3,6.4,29.87,West,280,5.0,8.0,84,0.00,,,0.00,Wunderground v.1.15,2013-12-05 05:01:00,
2013-12-04 23:02:00,10.3,6.4,29.87,West,274,5.0,8.0,84,0.00,,,0.00,Wunderground v.1.15,2013-12-05 05:02:00,
2013-12-04 23:06:00,10.3,6.4,29.88,WNW,287,3.0,10.0,84,0.00,,,0.00,Wunderground v.1.15,2013-12-05 05:06:00,
2013-12-04 23:07:00,10.3,6.4,29.88,WNW,288,4.0,10.0,84,0.00,,,0.00,Wunderground v.1.15,2013-12-05 05:07:00,
2013-12-04 23:08:00,10.3,6.7,29.88,WNW,284,6.0,10.0,85,0.00,,,0.00,Wunderground v.1.15,2013-12-05 05:08:00,
2013-12-04 23:10:00,10.3,6.7,29.88,WNW,288,5.0,8.0,85,0.00,,,0.00,Wunderground v.1.15,2013-12-05 05:10:00,
2013-12-04 23:11:00,10.2,6.6,29.88,West,273,6.0,8.0,85,0.00,,,0.00,Wunderground v.1.15,2013-12-05 05:11:00,
2013-12-04 23:12:00,10.3,6.7,29.88,West,277,6.0,10.0,85,0.00,,,0.00,Wunderground v.1.15,2013-12-05 05:12:00,
2013-12-04 23:13:00,10.2,6.6,29.88,West,261,6.0,10.0,85,0.00,,,0.00,Wunderground v.1.15,2013-12-05 05:13:00,
2013-12-04 23:14:00,10.2,6.6,29.88,WNW,288,7.0,10.0,85,0.00,,,0.00,Wunderground v.1.15,2013-12-05 05:14:00,
2013-12-04 23:15:00,10.2,6.6,29.89,West,273,9.0,11.0,85,0.00,,,0.00,Wunderground v.1.15,2013-12-05 05:15:00,
2013-12-04 23:16:00,10.2,6.6,29.89,West,264,8.0,11.0,85,0.00,,,0.00,Wunderground v.1.15,2013-12-05 05:16:00,
2013-12-04 23:17:00,10.1,6.5,29.89,WSW,256,7.0,11.0,85,0.00,,,0.00,Wunderground v.1.15,2013-12-05 05:17:00,
2013-12-04 23:19:00,10.1,6.2,29.88,West,270,5.0,11.0,84,0.00,,,0.00,Wunderground v.1.15,2013-12-05 05:19:00,
2013-12-04 23:20:00,10.1,6.2,29.88,WNW,282,5.0,10.0,84,0.00,,,0.00,Wunderground v.1.15,2013-12-05 05:20:00,
2013-12-04 23:21:00,10.0,6.1,29.88,WNW,289,8.0,10.0,84,0.00,,,0.00,Wunderground v.1.15,2013-12-05 05:21:00,
2013-12-04 23:22:00,10.0,6.1,29.88,WNW,286,11.0,12.0,84,0.00,,,0.00,Wunderground v.1.15,2013-12-05 05:22:00,
2013-12-04 23:25:00,9.9,6.0,29.89,West,273,6.0,12.0,84,0.00,,,0.00,Wunderground v.1.15,2013-12-05 05:25:00,
2013-12-04 23:27:00,9.8,5.9,29.89,West,275,4.0,12.0,84,0.00,,,0.00,Wunderground v.1.15,2013-12-05 05:27:00,
2013-12-04 23:28:00,9.8,5.9,29.89,WNW,284,3.0,12.0,84,0.00,,,0.00,Wunderground v.1.15,2013-12-05 05:28:00,
2013-12-04 23:30:00,9.7,5.8,29.89,West,275,7.0,9.0,84,0.00,,,0.00,Wunderground v.1.15,2013-12-05 05:30:00,
2013-12-04 23:31:00,9.6,5.7,29.89,West,278,7.0,9.0,84,0.00,,,0.00,Wunderground v.1.15,2013-12-05 05:31:00,
2013-12-04 23:32:00,9.6,5.7,29.90,West,281,3.0,10.0,84,0.00,,,0.00,Wunderground v.1.15,2013-12-05 05:32:00,
2013-12-04 23:33:00,9.6,5.7,29.90,WNW,284,3.0,10.0,84,0.00,,,0.00,Wunderground v.1.15,2013-12-05 05:33:00,
2013-12-04 23:35:00,9.5,5.6,29.89,WSW,257,8.0,10.0,84,0.00,,,0.00,Wunderground v.1.15,2013-12-05 05:35:00,
2013-12-04 23:36:00,9.4,5.5,29.90,West,281,10.0,11.0,84,0.00,,,0.00,Wunderground v.1.15,2013-12-05 05:36:00,
2013-12-04 23:37:00,9.4,5.5,29.90,West,275,8.0,11.0,84,0.00,,,0.00,Wunderground v.1.15,2013-12-05 05:37:00,
2013-12-04 23:38:00,9.4,5.5,29.90,West,270,5.0,11.0,84,0.00,,,0.00,Wunderground v.1.15,2013-12-05 05:38:00,
2013-12-04 23:40:00,9.3,5.4,29.90,WNW,290,8.0,8.0,84,0.00,,,0.00,Wunderground v.1.15,2013-12-05 05:40:00,
2013-12-04 23:41:00,9.3,5.4,29.90,WNW,286,4.0,10.0,84,0.00,,,0.00,Wunderground v.1.15,2013-12-05 05:41:00,
2013-12-04 23:42:00,9.2,5.3,29.90,WSW,257,5.0,10.0,84,0.00,,,0.00,Wunderground v.1.15,2013-12-05 05:42:00,
2013-12-04 23:43:00,9.2,5.3,29.90,West,269,4.0,10.0,84,0.00,,,0.00,Wunderground v.1.15,2013-12-05 05:43:00,
2013-12-04 23:44:00,9.2,5.3,29.90,WNW,284,6.0,10.0,84,0.00,,,0.00,Wunderground v.1.15,2013-12-05 05:44:00,
2013-12-04 23:45:00,9.2,5.3,29.90,West,270,6.0,10.0,84,0.00,,,0.00,Wunderground v.1.15,2013-12-05 05:45:00,
2013-12-04 23:46:00,9.1,5.2,29.90,WNW,283,6.0,10.0,84,0.00,,,0.00,Wunderground v.1.15,2013-12-05 05:46:00,
2013-12-04 23:48:00,9.1,5.2,29.90,West,280,4.0,10.0,84,0.00,,,0.00,Wunderground v.1.15,2013-12-05 05:48:00,
2013-12-04 23:49:00,9.1,5.2,29.90,West,279,4.0,10.0,84,0.00,,,0.00,Wunderground v.1.15,2013-12-05 05:49:00,
2013-12-04 23:51:00,9.0,5.1,29.90,NW,306,8.0,8.0,84,0.00,,,0.00,Wunderground v.1.15,2013-12-05 05:51:00,
2013-12-04 23:52:00,9.0,5.1,29.90,West,277,6.0,8.0,84,0.00,,,0.00,Wunderground v.1.15,2013-12-05 05:52:00,
2013-12-04 23:53:00,9.0,5.1,29.90,West,277,6.0,8.0,84,0.00,,,0.00,Wunderground v.1.15,2013-12-05 05:53:00,
2013-12-04 23:54:00,9.0,5.1,29.90,West,281,3.0,8.0,84,0.00,,,0.00,Wunderground v.1.15,2013-12-05 05:54:00,
2013-12-04 23:55:00,9.0,5.1,29.90,WNW,294,4.0,9.0,84,0.00,,,0.00,Wunderground v.1.15,2013-12-05 05:55:00,
2013-12-04 23:56:00,8.9,5.1,29.90,West,273,6.0,10.0,84,0.00,,,0.00,Wunderground v.1.15,2013-12-05 05:56:00,
2013-12-04 23:58:00,8.9,5.1,29.90,WNW,290,4.0,10.0,84,0.00,,,0.00,Wunderground v.1.15,2013-12-05 05:58:00,
2013-12-04 23:59:00,8.9,5.1,29.90,WNW,283,2.0,10.0,84,0.00,,,0.00,Wunderground v.1.15,2013-12-05 05:59:00,